Location: Mainz-Finthen
(49.9906°N, 8.1713°E)
Time: 18:42:22
(UTC+00:00)

Envisat - Pass Details

Date: 05 October 2021
Orbit: 764 x 766 km, 98.2° (Epoch: 19 October)

Event Time Altitude Azimuth Distance (km) Brightness Sun altitude
Rises 04:23:12 0° 17° (NNE) 3,243 6.6 -12.1°
Reaches altitude 10° 04:25:34 10° 22° (NNE) 2,312 5.9 -11.7°
Maximum altitude 04:30:34 55° 100° (E) 915 3.8 -10.9°
Drops below altitude 10° 04:35:32 10° 178° (S) 2,295 5.4 -10.1°
Sets 04:37:53 0° 183° (S) 3,217 6.2 -9.8°
